Regional Weather Roundup
Issued by NWS Kansas City/Pleasant Hill, MO

Home | Current Version | Previous Version | Text Only | Print | Product List | Glossary On
Versions: 1 2 3 4 5 6 7 8 9 10 11 12 13 14 15 16 17 18 19 20 21 22 23 24 25 26 27 28 29 30 31 32 33 34 35 36 37 38 39 40 41 42 43 44 45 46 47 48 49 50
000
ASUS43 KEAX 271110
RWREAX

WEATHER ROUNDUP FOR EASTERN KANSAS AND NORTHWEST MISSOURI
NATIONAL WEATHER SERVICE KANSAS CITY/PLEASANT HILL MO
600 AM CDT MON MAR 27 2017

KSZ040-057-103>105-MOZ028-029-037-043-271200-
...KANSAS CITY METROPOLITAN AREA...

CITY           SKY/WX    TMP DP  RH WIND       PRES   REMARKS
K.C. INTL      LGT RAIN  46  45  96 N8        29.86R
K.C. DOWNTOWN  LGT RAIN  48  45  89 N6        29.85R
LEES SUMMIT    RAIN      47  46  97 N10       29.84R FOG
OLATHE - IXD   CLOUDY    47  45  93 N10       29.84R
OLATHE - OJC   CLOUDY    46  46 100 NE14      29.83R
LAWRENCE       CLOUDY    46  46 100 NW8       29.86S FOG

$$

MOZ001>008-011>017-020>025-030>033-038>040-044>046-053-054-271200-
...NORTHERN AND CENTRAL MISSOURI...

CITY           SKY/WX    TMP DP  RH WIND       PRES   REMARKS
ST. JOSEPH     RAIN      46  46 100 N8        29.88R FOG
MOSBY          CLOUDY    46  45  93 NE6       29.85R
WARRENSBURG    LGT RAIN  46  45  93 N5        29.80R
WHITEMAN AFB   LGT RAIN  48  48 100 E13         N/A  FOG
CLINTON        CLOUDY    50  50 100 NE8       29.77S
SEDALIA        CLOUDY    50  48  93 NE12      29.81F
WARSAW         NOT AVBL
CHILLICOTHE      N/A     47  45  93 NE8       29.87F
KIRKSVILLE     CLOUDY    46  45  96 NE6       29.89F

$$

MOZ041-047>049-056>058-063>065-088>090-097-271200-
...EASTERN AND SOUTHERN MISSOURI...

CITY           SKY/WX    TMP DP  RH WIND       PRES   REMARKS
ST. LOUIS INTL CLOUDY    52  48  86 N3        29.86R
SPIRIT OF STL  CLOUDY    50  50 100 SW5       29.87R
COLUMBIA       LGT RAIN  49  49 100 E14       29.83F FOG
JEFFERSON CITY LGT RAIN  54  50  86 E12       29.82F
ROLLA          CLOUDY    51  51 100 E8        29.80F
OSAGE BEACH    CLOUDY   N/A N/A N/A E6        29.81S
SPRINGFIELD    LGT RAIN  55  54  96 SE10      29.77F
BRANSON        LGT RAIN  54  54 100 E3        29.79F
JOPLIN         TSTM      55  54  96 S5        29.75R
WEST PLAINS    LGT RAIN  56  54  93 E10       29.78F

$$

IAZ060-094-KSZ022-034>040-054-083-096-NEZ052-066-093-271200-
...KANSAS...SOUTHEAST NEBRASKA AND IOWA...

CITY           SKY/WX    TMP DP  RH WIND       PRES   REMARKS
TOPEKA         RAIN      46  46 100 N7        29.88R FOG
MANHATTAN      LGT RAIN  46  45  96 N5        29.90S FOG
EMPORIA        LGT RAIN  45  45 100 N10       29.85R FOG
CHANUTE        CLOUDY    50  47  89 N9        29.81R
WICHITA        CLOUDY    48  46  93 N14       29.87R
OMAHA          CLOUDY    45  41  86 N6        29.94R
LINCOLN        CLOUDY    44  42  93 N8        29.94F
FALLS CITY     CLOUDY    46  43  89 N7        29.90S
LAMONI         LGT RAIN  44  43  96 N8        29.89F
DES MOINES     CLOUDY    44  41  89 N8        29.93S

$$




USA.gov is the U.S. government's official web portal to all federal, state and local government web resources and services.